COSMOS 1925

Satellite information

Favourite Embed

Satellite Type and Status

PAYLOADIN ORBIT

Key statistics

Satellite COSMOS 1925 at a glance.

Uptime

13751

Days in orbit

Revolutions

≈ 12.5

Per day

Orbit

LEO

Low Earth Orbit

Inclination

74.0

Latest

Satellite identification and parameters

Extended collection of information and parameters for COSMOS 1925.

Object identification

Identified? True

Debris? False

Object name: COSMOS 1925

International designator: 1988-016B

Object number (NORAD): 18938

Object ID (CCSDS): 18938

Country: COMMONWEALTH OF INDEPENDENT STATES (CIS)

Current information (Y/N): Y

RCS size: MEDIUM

Orbital parameters

Period: 115.491 minutes

Inclination: 74.0076 deg

SMA: 7855.855 km

Apoapsis: 1497.202 km

Periapsis: 1458.237 km

RAAN: 352.0857 deg

Eccentricy: 0.00248

Argument of periapsis: 303.4293 deg

Mean anomaly: 164.7774 deg

Mean motion: 12.46845383 rev/day

Mean motion (dot): 0.00000008 rev/day2

B* drag term: 0.00016558 1/REarth

Two-line elements (TLE)

Creation date: Nov. 2, 2025, 4:06 p.m.

Reference frame: TEME

Reference center: EARTH

Epoch: Nov. 2, 2025, 12:18 p.m. UTC

TLE line 0: 0 COSMOS 1925

TLE line 1: 1 18938U 88016B 25306.51318374 .00000008 00000-0 16558-3 0 9996

TLE line 2: 2 18938 74.0076 352.0857 0024800 303.4293 164.7774 12.46845383713521

Live tracking on map

Real-time ground track for satellite COSMOS 1925.

In-orbit conjunctions

There are no conjunctions computed for COSMOS 1925, at the moment. Check back to stay up to date, as we update our databases every day.

Go to all conjunctions

Associated space launch

Military communications satellites

COSMOS 1925 was lifted into orbit during the mission ‘Kosmos-3M | Strela-1M 329-336’, on board a Kosmos-3M space rocket.

The launch took place on March 11, 1988, 12:18 a.m. from 132/1 (132L).

For more information about the launch, click the button.

Launch to space Kosmos-3M | Strela-1M 329-336
Kosmos-3M | Strela-1M 329-336

Agency: N/A

Status: Launch Successful

Launch date: March 11, 1988, 12:18 a.m. UTC

Rocket: Kosmos-3M

Launch pad: 132/1 (132L)

Location: Plesetsk Cosmodrome, Russian Federation

...

Latest news about this satellite

There are no fresh news available about this satellite. Check back as we update our databases every day.


Newsletter sign-up

Weekly statistics, charts and insights to help you stay on top of the space industry.